Viroqua, WI

2:09 PM CDT on March 30, 2017 (GMT -0500)
Viroqua

Weather History for KY51 - January, 2014

Change the Weather History Date:

Monday, January 27, 2014

  Actual Average (KCMY) Record (KCMY)
Temperature  
Mean Temperature -8 °F -  
Max Temperature -2 °F 22 °F 55 °F (2006)
Min Temperature -15 °F 0 °F -31 °F (1950)
Degree Days  
Heating Degree Days 74    
Moisture  
Dew Point -19 °F    
Average Humidity 65    
Maximum Humidity 78    
Minimum Humidity 52    
Precipitation  
Precipitation 0.00 in - - ()
Sea Level Pressure  
Sea Level Pressure 30.20 in    
Wind  
Wind Speed 14 mph (WNW)    
Max Wind Speed 20 mph    
Max Gust Speed 28 mph    
Visibility 8 miles    
Events      
Averages and records for this station are not official NWS values.
T = Trace of Precipitation, MM = Missing Value Source: NWS Daily Summary

Daily Weather History Graph

Daily Weather History Graph

Search for Another Location

Airport or City:

Trip Planner

Search our weather history database for the weather conditions in past years. The results will help you decide how hot, cold, wet, or windy it might be!

Date:

Astronomy

Jan. 27, 2014 Rise Set
Actual Time 7:25 AM CST 5:08 PM CST
Civil Twilight 6:54 AM CST 5:39 PM CST
Nautical Twilight 6:19 AM CST 6:13 PM CST
Astronomical Twilight 5:45 AM CST 6:47 PM CST
Moon 4:07 AM CST (1/27) 1:53 PM CST (1/27)
Length of Visible Light 10h 44m
Length of Day
9h 43m
Waning Crescent, 14% of the Moon is Illuminated
Jan 27
Waning Crescent
Jan 30
New
Feb 6
First Quarter
Feb 14
Full
Feb 22
Last Quarter

Hourly Weather History & Observations

Time (CST) Temp. Windchill Dew Point Humidity Pressure Visibility Wind Dir Wind Speed Gust Speed Precip Events Conditions
12:15 AM -2.4 °F -22.4 °F -8.5 °F 75% 29.90 in 4.0 mi WNW 15.0 mph - N/A   Overcast
12:35 AM -3.1 °F -23.3 °F -8.5 °F 78% 29.91 in 4.0 mi WNW 15.0 mph 21.9 mph N/A   Overcast
12:55 AM -3.1 °F -23.3 °F -8.9 °F 76% 29.92 in 4.0 mi WNW 15.0 mph 23.0 mph N/A   Overcast
1:15 AM -3.1 °F -25.3 °F -10.3 °F 71% 29.93 in 5.0 mi WNW 18.4 mph 25.3 mph N/A   Overcast
1:35 AM -3.6 °F -22.5 °F -11.4 °F 69% 29.95 in 7.0 mi WNW 12.7 mph 25.3 mph N/A   Mostly Cloudy
1:55 AM -4.0 °F -25.2 °F -9.9 °F 76% 29.96 in 2.5 mi WNW 16.1 mph 20.7 mph N/A   Overcast
2:15 AM -4.7 °F -25.4 °F -10.3 °F 77% 29.97 in 1.8 mi WNW 15.0 mph 21.9 mph N/A   Overcast
2:35 AM -5.6 °F -26.6 °F -13.0 °F 70% 29.98 in 3.0 mi WNW 15.0 mph 21.9 mph N/A   Overcast
2:55 AM -6.2 °F -28.6 °F -13.4 °F 71% 30.00 in 5.0 mi WNW 17.3 mph 26.5 mph N/A   Overcast
3:15 AM -7.1 °F -29.8 °F -13.9 °F 72% 30.00 in 3.0 mi WNW 17.3 mph 27.6 mph N/A   Overcast
3:35 AM -7.8 °F -31.4 °F -14.3 °F 73% 30.01 in 3.0 mi WNW 18.4 mph 26.5 mph N/A   Overcast
3:55 AM -8.5 °F -31.0 °F -14.8 °F 74% 30.02 in 3.0 mi WNW 16.1 mph 26.5 mph N/A   Overcast
4:15 AM -8.9 °F -32.1 °F -15.3 °F 73% 30.03 in 3.0 mi WNW 17.3 mph 24.2 mph N/A   Overcast
4:35 AM -9.6 °F -30.8 °F -16.8 °F 71% 30.05 in 7.0 mi WNW 13.8 mph 19.6 mph N/A   Overcast
4:55 AM -10.3 °F -34.6 °F -18.4 °F 67% 30.05 in 7.0 mi WNW 18.4 mph 24.2 mph N/A   Scattered Clouds
5:15 AM -10.7 °F -34.5 °F -18.8 °F 67% 30.07 in 10.0 mi WNW 17.3 mph 21.9 mph N/A   Clear
5:35 AM -11.2 °F -34.4 °F -18.8 °F 69% 30.08 in 10.0 mi WNW 16.1 mph - N/A   Scattered Clouds
5:55 AM -11.6 °F -34.2 °F -19.3 °F 69% 30.09 in 5.0 mi WNW 15.0 mph 25.3 mph N/A   Mostly Cloudy
6:15 AM -12.1 °F -37.6 °F -20.2 °F 67% 30.09 in 7.0 mi WNW 19.6 mph 24.2 mph N/A   Scattered Clouds
6:35 AM -12.6 °F -37.0 °F -20.7 °F 67% 30.10 in 7.0 mi WNW 17.3 mph 21.9 mph N/A   Scattered Clouds
6:55 AM -13.0 °F -37.5 °F -20.7 °F 68% 30.11 in 5.0 mi WNW 17.3 mph 23.0 mph N/A   Mostly Cloudy
7:15 AM -13.2 °F -37.0 °F -21.1 °F 68% 30.13 in 5.0 mi WNW 16.1 mph 21.9 mph N/A   Overcast
7:35 AM -13.5 °F -37.5 °F -21.1 °F 69% 30.15 in 4.0 mi WNW 16.1 mph 21.9 mph N/A   Overcast
7:55 AM -13.5 °F -36.7 °F -21.1 °F 69% 30.17 in 4.0 mi WNW 15.0 mph - N/A   Overcast
8:15 AM -13.5 °F -37.5 °F -21.5 °F 68% 30.18 in 3.0 mi WNW 16.1 mph 24.2 mph N/A   Overcast
8:35 AM -13.5 °F -38.9 °F -21.5 °F 68% 30.19 in 3.0 mi WNW 18.4 mph 23.0 mph N/A   Overcast
8:55 AM -13.2 °F -37.7 °F -21.8 °F 65% 30.21 in 5.0 mi WNW 17.3 mph - N/A   Overcast
9:15 AM -13.2 °F -36.2 °F -21.6 °F 66% 30.21 in 2.5 mi WNW 15.0 mph 24.2 mph N/A   Overcast
9:35 AM -13.0 °F -37.5 °F -21.6 °F 65% 30.22 in 2.5 mi WNW 17.3 mph - N/A   Overcast
9:55 AM -12.6 °F -35.5 °F -21.1 °F 66% 30.22 in 2.0 mi WNW 15.0 mph 18.4 mph N/A   Overcast
10:15 AM -12.3 °F -35.8 °F -22.0 °F 62% 30.22 in 7.0 mi WNW 16.1 mph 19.6 mph N/A   Mostly Cloudy
10:35 AM -11.7 °F -36.5 °F -22.5 °F 59% 30.24 in 7.0 mi NW 18.4 mph - N/A   Clear
10:55 AM -11.2 °F -34.4 °F -22.2 °F 58% 30.24 in 10.0 mi NW 16.1 mph 19.6 mph N/A   Clear
11:15 AM -11.2 °F -34.4 °F -21.5 °F 60% 30.25 in 7.0 mi WNW 16.1 mph - N/A   Scattered Clouds
11:35 AM -10.8 °F -35.3 °F -21.6 °F 59% 30.25 in 7.0 mi WNW 18.4 mph 21.9 mph N/A   Mostly Cloudy
11:55 AM -10.3 °F -34.0 °F -21.6 °F 57% 30.24 in 7.0 mi WNW 17.3 mph 24.2 mph N/A   Scattered Clouds
12:15 PM -9.4 °F -30.6 °F -21.5 °F 56% 30.25 in 10.0 mi WNW 13.8 mph 20.7 mph N/A   Clear
12:35 PM -9.4 °F -30.6 °F -21.1 °F 57% 30.25 in 10.0 mi West 13.8 mph - N/A   Clear
12:55 PM -8.9 °F -30.7 °F -21.3 °F 55% 30.25 in 10.0 mi WNW 15.0 mph - N/A   Clear
1:15 PM -8.5 °F -29.5 °F -20.9 °F 55% 30.25 in 10.0 mi WNW 13.8 mph 19.6 mph N/A   Clear
1:35 PM -8.1 °F -28.2 °F -20.9 °F 54% 30.25 in 10.0 mi West 12.7 mph - N/A   Clear
1:55 PM -8.0 °F -27.1 °F -20.7 °F 54% 30.25 in 10.0 mi West 11.5 mph - N/A   Clear
2:15 PM -8.0 °F -25.0 °F -20.9 °F 53% 30.26 in 10.0 mi WNW 9.2 mph - N/A   Clear
2:35 PM -7.6 °F -25.7 °F -20.6 °F 53% 30.26 in 10.0 mi WNW 10.4 mph 16.1 mph N/A   Clear
2:55 PM -7.1 °F -23.9 °F -20.0 °F 53% 30.27 in 10.0 mi West 9.2 mph - N/A   Clear
3:15 PM -7.1 °F -26.8 °F -20.6 °F 52% 30.28 in 10.0 mi WNW 12.7 mph - N/A   Clear
3:35 PM -7.1 °F -25.9 °F -20.2 °F 53% 30.28 in 10.0 mi West 11.5 mph - N/A   Clear
3:55 PM -7.1 °F -25.0 °F -20.0 °F 53% 30.28 in 10.0 mi WNW 10.4 mph - N/A   Clear
4:15 PM -7.6 °F -25.7 °F -19.8 °F 55% 30.28 in 10.0 mi WNW 10.4 mph - N/A   Clear
4:35 PM -7.6 °F -26.6 °F -19.7 °F 56% 30.29 in 10.0 mi WNW 11.5 mph 17.3 mph N/A   Clear
4:55 PM -8.5 °F -24.5 °F -19.7 °F 58% 30.29 in 10.0 mi West 8.1 mph - N/A   Clear
5:15 PM -9.2 °F -25.4 °F -20.2 °F 59% 30.30 in 10.0 mi West 8.1 mph - N/A   Clear
5:35 PM -9.2 °F -25.4 °F -19.8 °F 60% 30.30 in 10.0 mi West 8.1 mph - N/A   Clear
5:55 PM -9.6 °F -25.8 °F -19.7 °F 61% 30.30 in 10.0 mi West 8.1 mph - N/A   Clear
6:14 PM -9.4 °F -25.6 °F -20.2 °F 59% 30.31 in 10.0 mi West 8.1 mph - N/A   Clear
6:15 PM -10.3 °F -26.7 °F -19.8 °F 63% 30.31 in 10.0 mi West 8.1 mph - N/A   Clear
6:35 PM -10.3 °F -26.7 °F -19.7 °F 63% 30.32 in 10.0 mi West 8.1 mph - N/A   Clear
6:55 PM -10.3 °F -25.4 °F -19.5 °F 64% 30.32 in 10.0 mi West 6.9 mph - N/A   Clear
7:15 PM -11.2 °F -26.4 °F -20.0 °F 65% 30.32 in 10.0 mi West 6.9 mph - N/A   Clear
7:35 PM -11.2 °F -27.8 °F -19.8 °F 66% 30.32 in 10.0 mi West 8.1 mph - N/A   Clear
7:55 PM -12.8 °F -29.8 °F -20.6 °F 68% 30.32 in 10.0 mi West 8.1 mph - N/A   Clear
8:15 PM -12.1 °F -27.5 °F -19.8 °F 68% 30.32 in 10.0 mi West 6.9 mph - N/A   Clear
8:35 PM -12.3 °F -30.4 °F -19.8 °F 69% 30.32 in 10.0 mi West 9.2 mph - N/A   Clear
8:55 PM -12.6 °F -29.6 °F -20.2 °F 69% 30.32 in 10.0 mi West 8.1 mph - N/A   Clear
9:15 PM -12.5 °F -30.6 °F -19.7 °F 70% 30.32 in 10.0 mi West 9.2 mph - N/A   Clear
9:35 PM -13.0 °F -30.0 °F -20.2 °F 70% 30.32 in 10.0 mi West 8.1 mph - N/A   Clear
9:55 PM -13.2 °F -31.5 °F -19.8 °F 72% 30.32 in 10.0 mi West 9.2 mph - N/A   Clear
10:15 PM -13.5 °F -31.9 °F -20.2 °F 72% 30.32 in 10.0 mi West 9.2 mph - N/A   Clear
10:35 PM -14.6 °F -33.2 °F -20.7 °F 74% 30.32 in 10.0 mi West 9.2 mph - N/A   Clear
10:55 PM -14.8 °F -33.5 °F -20.6 °F 75% 30.32 in 10.0 mi West 9.2 mph - N/A   Clear
11:15 PM -15.2 °F -36.1 °F -21.1 °F 75% 30.32 in 10.0 mi WSW 11.5 mph - N/A   Clear
11:35 PM -15.2 °F -35.1 °F -21.1 °F 75% 30.32 in 10.0 mi WSW 10.4 mph - N/A   Clear
11:55 PM -14.8 °F -32.2 °F -20.7 °F 75% 30.32 in 10.0 mi WSW 8.1 mph - N/A   Clear